Change the Weather History Date:

Thursday, December 6, 2012

  Actual Average Record
Temperature  
Mean Temperature 55 °F 47 °F  
Max Temperature 61 °F 58 °F 77 °F (1998)
Min Temperature 49 °F 37 °F 20 °F (1937)
Degree Days  
Heating Degree Days 10 18  
Month to date heating degree days 34 102  
Since 1 July heating degree days 558 582  
Growing Degree Days 4 (Base 50)    
Moisture  
Dew Point 42 °F    
Average Humidity 66    
Maximum Humidity 84    
Minimum Humidity 47    
Precipitation  
Precipitation T in 0.12 in 2.25 in (1886)
Month to date precipitation T 0.76  
Year to date precipitation 31.50 43.36  
Snow  
Snow 0.00 in 0.00 in 0.00 in (2001)
Month to date snowfall 0.0 0.0  
Since 1 July snowfall 0.0 0.0  
Snow Depth -    
Sea Level Pressure  
Sea Level Pressure 30.16 in    
Wind  
Wind Speed 10 mph (ENE)    
Max Wind Speed 16 mph    
Max Gust Speed 23 mph    
Visibility 10 miles    
Events      
T = Trace of Precipitation, MM = Missing Value Source: NWS Daily Summary

Daily Weather History Graph

Daily Weather History Graph

Search for Another Location

Airport or City:

Trip Planner

Search our weather history database for the weather conditions in past years. The results will help you decide how hot, cold, wet, or windy it might be!

Date:

Astronomy

Dec. 06, 2012 Rise Set
Actual Time 7:25 AM EST 5:24 PM EST
Civil Twilight 6:57 AM EST 5:51 PM EST
Nautical Twilight 6:26 AM EST 6:22 PM EST
Astronomical Twilight 5:56 AM EST 6:53 PM EST
Moon No Moon Rise 12:32 PM EST (12/6)
Length of Visible Light 10h 54m
Length of Day
9h 59m
Waning Gibbous, 49% of the Moon is Illuminated
Dec 6
Waning Gibbous
Dec 13
New
Dec 20
First Quarter
Dec 28
Full
Jan 4
Last Quarter

Hourly Weather History & Observations

Time (EST) Temp. Dew Point Humidity Pressure Visibility Wind Dir Wind Speed Gust Speed Precip Events Conditions
12:40 AM 60.8 °F 55.4 °F 82% 30.14 in 10.0 mi ENE 6.9 mph - N/A   Overcast
12:51 AM 60.1 °F 54.0 °F 80% 30.13 in 10.0 mi ENE 5.8 mph - N/A   Overcast
1:16 AM 60.8 °F 53.6 °F 77% 30.14 in 10.0 mi ENE 5.8 mph - N/A   Overcast
1:51 AM 60.1 °F 51.1 °F 72% 30.14 in 10.0 mi ENE 6.9 mph - N/A   Overcast
2:51 AM 59.0 °F 46.0 °F 62% 30.14 in 10.0 mi ENE 8.1 mph - N/A   Overcast
3:51 AM 57.9 °F 41.0 °F 53% 30.14 in 10.0 mi ENE 9.2 mph - N/A   Overcast
4:25 AM 57.2 °F 39.2 °F 51% 30.14 in 10.0 mi ENE 9.2 mph - N/A   Overcast
4:38 AM 57.2 °F 37.4 °F 48% 30.15 in 10.0 mi ENE 8.1 mph - N/A   Overcast
4:51 AM 57.9 °F 37.0 °F 46% 30.14 in 10.0 mi ENE 8.1 mph - N/A   Overcast
5:51 AM 57.0 °F 39.0 °F 51% 30.15 in 10.0 mi ENE 8.1 mph - N/A   Overcast
6:51 AM 57.0 °F 41.0 °F 55% 30.17 in 10.0 mi ENE 8.1 mph - N/A   Overcast
7:51 AM 55.9 °F 43.0 °F 62% 30.18 in 10.0 mi ENE 10.4 mph - N/A   Overcast
8:51 AM 55.0 °F 37.0 °F 51% 30.19 in 10.0 mi ENE 11.5 mph - N/A   Overcast
9:51 AM 55.9 °F 36.0 °F 47% 30.21 in 10.0 mi ENE 11.5 mph 17.3 mph N/A   Overcast
10:51 AM 55.0 °F 39.0 °F 55% 30.22 in 10.0 mi NE 13.8 mph 19.6 mph N/A   Overcast
11:51 AM 55.0 °F 41.0 °F 59% 30.20 in 10.0 mi ENE 11.5 mph - N/A   Overcast
12:44 PM 55.4 °F 42.8 °F 63% 30.18 in 10.0 mi ENE 11.5 mph - N/A   Overcast
12:51 PM 55.0 °F 42.1 °F 62% 30.17 in 10.0 mi ENE 11.5 mph - N/A   Overcast
1:51 PM 55.0 °F 43.0 °F 64% 30.16 in 10.0 mi NE 10.4 mph - N/A   Overcast
2:51 PM 55.9 °F 43.0 °F 62% 30.15 in 10.0 mi East 10.4 mph - N/A   Overcast
3:51 PM 55.0 °F 44.1 °F 67% 30.15 in 10.0 mi NE 8.1 mph - N/A   Overcast
4:51 PM 54.0 °F 43.0 °F 66% 30.16 in 10.0 mi ENE 9.2 mph - N/A   Overcast
5:51 PM 52.0 °F 42.1 °F 69% 30.17 in 10.0 mi ENE 8.1 mph - N/A   Overcast
6:51 PM 51.1 °F 44.1 °F 77% 30.17 in 10.0 mi East 8.1 mph - 0.00 in   Overcast
7:51 PM 50.0 °F 41.0 °F 71% 30.17 in 10.0 mi ENE 9.2 mph - N/A   Mostly Cloudy
8:51 PM 50.0 °F 39.9 °F 68% 30.16 in 10.0 mi East 11.5 mph - N/A   Mostly Cloudy
9:34 PM 50.0 °F 39.2 °F 66% 30.17 in 10.0 mi ENE 8.1 mph - N/A   Overcast
9:49 PM 50.0 °F 39.2 °F 66% 30.17 in 10.0 mi ENE 8.1 mph - N/A   Overcast
9:51 PM 50.0 °F 39.9 °F 68% 30.17 in 10.0 mi ENE 8.1 mph - N/A   Overcast
10:30 PM 50.0 °F 39.2 °F 66% 30.18 in 10.0 mi ENE 10.4 mph - N/A   Overcast
10:51 PM 50.0 °F 39.0 °F 66% 30.18 in 10.0 mi ENE 11.5 mph 18.4 mph N/A   Overcast
11:10 PM 50.0 °F 39.2 °F 66% 30.17 in 10.0 mi ENE 12.7 mph - N/A   Overcast
11:51 PM 48.9 °F 39.0 °F 69% 30.17 in 10.0 mi ENE 10.4 mph - N/A   Overcast